Lapse_Rate
6.5 6.4 6.3 5.8 5.9 5.8 5.9 6.1 6.2 6.0 5.8 5.9 5.8 5.6 5.6 5.3 5.3 5.4 5.4 5.7 6.0 5.8 6.3 6.1 6.5 6.8 6.4 6.4 6.5 6.8 6.8 7.0 6.6 6.6 6.6 6.5 6.5 6.4 6.5 6.8 6.7 6.5 6.4
6.7 6.6 6.5 6.2 6.0 6.0 6.0 6.1 6.1 5.9 5.8 5.9 5.9 6.0 5.6 5.6 5.4 5.4 5.5 5.6 6.3 6.3 6.0 6.2 6.6 6.4 6.5 6.5 6.7 7.0 6.9 6.7 6.6 6.6 6.5 6.4 6.4 6.4 6.5 6.6 6.5 6.4 6.4
6.7 6.8 6.8 6.5 6.5 6.2 6.1 6.0 6.1 5.9 6.0 6.0 5.9 5.6 5.4 5.3 5.5 5.4 5.3 5.5 6.1 6.3 6.1 6.2 6.3 6.5 6.4 6.5 6.8 7.0 6.8 6.5 6.6 6.6 6.5 6.3 6.3 6.3 6.4 6.5 6.4 6.3 6.3
6.8 6.9 6.9 6.7 6.6 6.3 5.9 5.9 6.1 6.1 6.2 6.1 5.6 5.4 5.5 5.2 5.5 5.3 5.5 5.7 5.9 6.3 6.3 6.2 6.3 6.4 6.3 6.5 6.8 7.0 6.5 6.6 6.5 6.6 6.5 6.3 6.2 6.2 6.3 6.3 6.3 6.3 6.3
6.9 6.9 6.9 6.9 6.6 6.4 6.2 6.2 6.1 6.1 6.0 6.0 5.6 5.4 5.3 5.1 5.3 5.3 5.4 5.7 5.9 6.4 6.4 6.2 6.5 6.4 6.5 6.6 6.9 6.9 6.8 6.6 6.5 6.4 6.4 6.3 6.2 6.1 6.1 6.1 6.1 6.2 6.2
7.0 7.0 7.0 6.9 6.9 6.7 6.3 6.1 6.0 6.0 5.9 5.9 5.5 5.4 5.3 5.1 5.2 5.3 5.3 5.7 5.9 6.3 6.3 6.4 6.5 6.3 6.5 7.0 6.9 6.8 6.8 6.4 6.3 6.3 6.3 6.3 6.1 6.0 6.0 5.9 6.0 5.9 5.8
7.3 7.2 7.1 7.0 7.1 6.9 6.5 6.1 6.0 5.9 5.9 5.8 5.4 5.5 5.5 5.2 5.6 5.4 5.1 5.4 5.7 6.1 6.2 6.2 6.3 6.2 6.4 6.6 6.7 6.5 6.5 6.5 6.2 6.3 6.3 6.2 6.1 6.0 6.0 6.0 5.9 5.8 5.8
7.5 7.4 7.3 7.1 7.1 7.0 6.5 6.2 6.0 6.0 5.8 5.8 5.6 5.3 5.2 5.2 5.0 5.2 5.3 5.4 5.5 5.8 6.1 6.3 6.4 6.5 6.5 6.4 6.4 6.3 6.4 6.2 6.2 6.2 6.2 6.0 6.1 5.9 5.8 5.8 5.8 5.7 5.5
7.5 7.6 7.5 7.2 7.2 7.1 6.7 6.3 6.1 6.0 5.8 5.9 5.8 5.4 5.5 5.0 4.9 4.9 5.1 5.0 5.7 6.0 6.2 6.3 6.2 6.3 6.2 6.4 6.2 6.3 6.2 6.1 6.0 6.0 6.0 6.0 5.9 5.8 5.7 5.6 5.5 5.3 5.2
7.4 7.6 7.6 7.3 7.2 7.2 6.8 6.4 6.2 5.9 5.7 5.9 5.8 5.6 5.2 5.2 5.1 5.0 5.0 5.0 5.3 5.7 5.8 6.0 6.0 6.2 6.2 6.1 6.0 6.1 6.1 5.9 6.0 5.9 5.8 5.7 5.6 5.6 5.4 5.3 5.2 5.1 5.1
7.5 7.5 7.7 7.5 7.3 7.2 7.0 6.5 6.2 6.0 5.7 6.1 5.5 5.5 5.2 5.0 5.0 5.2 5.1 4.9 4.9 5.4 5.5 5.5 5.6 5.8 5.9 5.8 5.9 5.9 5.7 5.6 5.7 5.7 5.6 5.5 5.5 5.5 5.3 5.4 5.2 5.0 4.8
7.6 7.6 7.8 7.5 7.4 7.3 7.0 6.7 6.1 5.7 5.6 5.9 5.7 5.3 5.5 5.1 5.1 5.4 4.8 4.7 4.9 4.6 5.4 5.3 5.1 5.3 5.5 5.6 5.6 5.6 5.5 5.5 5.5 5.4 5.5 5.4 5.4 5.3 5.2 5.1 5.0 4.8 4.8
7.9 7.8 7.7 7.6 7.5 7.3 7.0 6.7 6.1 5.7 5.5 5.6 5.8 5.6 5.3 5.1 4.9 4.8 4.7 4.8 4.9 4.7 4.8 5.1 5.3 5.3 5.3 5.5 5.7 5.6 5.6 5.6 5.3 5.4 5.4 5.2 5.2 5.3 5.2 5.1 4.9 4.8 4.9
7.8 7.8 7.7 7.6 7.5 7.4 6.8 6.6 6.1 5.3 5.3 5.6 5.6 5.5 5.4 5.2 5.0 5.0 5.0 4.9 5.0 4.9 4.7 4.6 4.7 5.1 5.5 5.6 5.2 5.1 5.4 5.5 5.4 5.2 5.1 5.2 5.3 5.2 5.1 4.9 5.0 5.0 5.0
7.8 7.9 7.8 7.6 7.6 7.5 6.9 6.6 6.1 5.7 5.5 5.5 5.8 5.6 5.8 5.7 5.4 5.2 5.2 5.1 5.3 5.2 5.3 5.3 5.1 5.1 5.0 5.2 5.1 5.1 5.0 4.8 5.1 5.0 5.0 5.1 5.1 5.1 5.0 4.8 5.0 5.0 5.1
7.7 8.0 7.6 7.5 7.6 7.5 7.0 6.8 6.5 5.8 5.7 5.7 5.6 5.8 5.5 5.5 5.3 5.3 5.4 5.3 5.5 5.4 5.4 5.4 5.5 5.4 5.3 5.1 5.2 5.1 5.1 4.8 4.9 5.2 5.0 4.9 4.8 4.9 4.9 4.9 4.9 4.8 4.8
7.7 7.9 7.6 7.7 7.7 7.5 7.0 7.1 6.7 6.1 5.7 5.6 5.6 5.8 5.4 5.5 5.4 5.3 5.4 5.3 5.3 5.3 5.5 5.6 5.4 5.5 5.4 5.2 5.1 5.2 5.2 5.2 5.0 5.1 5.3 5.1 4.6 4.6 4.7 4.7 4.8 4.8 4.9
7.7 7.8 7.6 7.7 7.7 7.6 7.2 7.2 6.9 6.5 5.9 5.4 5.4 5.4 5.6 5.3 5.5 5.6 5.4 5.4 5.4 5.4 5.5 5.4 5.4 5.5 5.3 5.3 5.2 5.1 4.9 5.0 5.0 4.8 4.8 4.9 4.9 5.0 5.0 4.9 4.6 4.8 5.0
7.5 7.8 7.8 7.8 7.8 7.6 7.3 7.3 7.1 6.5 6.0 5.7 5.4 5.4 5.4 5.3 5.4 5.7 5.5 5.3 5.3 5.3 5.4 5.4 5.5 5.5 5.4 5.4 5.2 5.0 5.0 4.8 4.9 5.0 4.9 5.2 5.1 5.1 5.1 5.1 5.2 5.2 5.3
7.5 7.7 7.9 7.8 7.6 7.7 7.4 7.2 7.2 6.8 6.3 6.2 6.0 5.9 5.5 5.0 4.9 5.2 5.2 5.4 5.4 5.3 5.4 5.4 5.5 5.5 5.3 5.4 5.1 4.9 5.0 5.0 5.0 4.8 5.2 5.0 5.2 5.4 5.4 5.4 5.3 5.2 5.4
7.2 7.5 7.6 7.8 7.5 7.6 7.6 7.2 7.0 7.0 6.6 6.2 6.1 6.0 5.6 5.5 5.4 5.5 5.5 5.7 5.6 5.4 5.4 5.5 5.5 5.3 5.4 5.2 5.2 4.9 5.0 4.7 4.9 5.3 5.3 5.3 5.3 5.1 5.0 5.1 5.2 5.4 5.6
7.1 7.1 6.5 7.4 7.6 7.8 7.4 7.0 6.8 6.8 6.6 6.6 6.5 6.4 6.2 6.1 6.1 6.0 5.9 5.7 5.6 5.7 5.6 5.7 5.6 5.9 5.5 5.4 5.0 4.9 5.0 5.3 5.3 5.2 5.2 5.1 5.2 5.1 5.1 5.1 5.3 5.6 5.7
6.9 6.4 6.5 6.6 7.4 7.4 7.2 6.8 6.5 6.4 6.5 6.6 6.6 6.5 6.6 6.6 6.5 6.4 6.2 6.1 6.2 6.1 6.2 6.1 5.8 5.5 5.7 5.5 5.2 5.1 5.1 5.1 5.2 5.5 5.5 5.5 5.4 5.4 5.1 5.3 5.2 5.0 5.3
6.3 6.4 6.5 6.4 6.5 7.1 6.9 6.7 6.2 6.1 6.6 6.7 6.6 6.6 6.7 6.7 6.5 6.3 6.2 6.0 5.9 5.9 5.9 5.7 5.6 5.7 5.8 5.7 5.6 5.4 5.5 5.5 5.4 5.4 5.7 5.8 5.7 5.6 5.3 5.4 5.5 5.6 5.7
5.9 6.1 5.9 5.9 5.8 6.2 6.2 6.0 5.8 5.8 5.7 6.1 6.5 6.6 6.6 6.5 6.3 5.6 5.7 5.6 5.7 5.5 5.5 5.8 5.6 5.4 5.4 5.6 5.6 5.7 5.9 5.7 5.7 5.6 5.8 5.8 5.8 5.7 5.4 5.5 5.5 5.3 5.2
5.7 5.4 5.9 5.4 5.2 5.4 5.3 5.3 5.3 5.2 5.3 5.8 5.8 5.9 5.9 5.7 6.1 5.8 5.7 5.7 5.5 5.3 5.6 5.7 5.6 5.6 5.4 5.8 5.9 5.8 6.0 5.9 6.0 5.7 5.9 5.9 5.9 5.7 5.4 5.5 5.6 5.4 5.4
Wind_Speed
5 6 6 10 10 12 11 9 10 9 8 9 9 6 4 6 13 12 12 28 27 24 23 22 21 22 22 21 22 21 21 21 17 16 16 17 18 18 18 16 15 13 14
4 5 5 4 6 12 13 12 9 6 5 8 5 7 8 7 12 13 13 21 27 26 24 23 22 22 23 23 22 22 21 20 18 16 16 15 17 18 18 16 15 13 12
8 5 5 5 5 12 13 11 9 8 5 5 6 6 6 4 10 15 16 18 21 26 25 23 23 23 22 21 22 21 20 19 16 16 15 15 14 15 15 14 13 13 12
15 6 5 5 9 10 9 6 7 6 6 6 5 5 5 5 11 15 17 17 17 18 23 24 23 23 22 21 21 20 19 19 17 16 16 15 15 15 15 14 13 12 12
15 8 6 5 13 6 5 6 5 8 7 6 6 5 5 4 6 13 15 16 16 17 17 22 24 24 23 23 21 20 18 17 18 17 17 15 15 14 14 13 12 11 10
12 7 6 6 8 7 6 6 8 5 6 6 6 6 6 5 3 8 11 17 16 17 17 17 20 21 25 23 22 20 19 19 18 18 17 17 16 15 14 13 13 13 12
12 6 6 7 8 8 9 9 5 8 4 6 4 5 5 4 5 7 12 12 13 16 18 18 17 17 19 25 24 22 19 20 20 19 19 18 17 16 15 15 14 14 14
12 8 9 7 9 6 8 8 7 4 5 8 4 5 3 3 4 8 9 9 10 14 14 17 18 18 18 17 20 23 22 21 22 21 20 19 19 19 18 17 16 16 17
11 9 9 8 8 7 6 8 8 8 6 7 9 3 4 2 8 2 6 8 8 6 11 17 18 18 20 19 23 23 23 22 22 23 22 22 21 21 21 20 20 21 20
9 10 11 9 8 6 7 7 7 8 5 7 3 4 1 10 8 4 2 2 8 8 7 9 14 18 19 19 22 24 28 28 26 23 22 24 24 23 22 22 22 22 22
6 10 11 11 9 6 8 9 9 9 7 4 4 5 2 5 4 4 6 3 2 3 6 6 13 17 20 21 20 23 31 32 30 28 24 20 24 25 26 26 25 26 26
6 9 12 11 10 8 9 9 9 9 7 6 4 6 7 7 5 3 3 2 4 4 4 5 6 14 17 18 23 28 35 37 36 33 31 28 24 25 27 28 28 27 27
8 10 12 11 8 9 9 9 9 9 8 8 8 7 4 6 3 3 3 3 4 3 3 4 5 13 17 16 19 30 34 37 37 37 36 35 31 28 26 27 30 29 29
6 8 11 11 12 12 10 9 7 7 9 7 10 8 7 7 6 6 7 5 3 2 3 4 5 8 14 18 21 30 25 37 39 38 37 36 35 35 34 30 28 27 28
6 9 10 11 12 12 13 11 8 8 9 8 10 10 7 7 7 7 7 4 5 4 7 4 3 6 10 14 19 22 22 25 33 37 38 38 37 36 34 34 34 31 31
10 10 11 11 11 12 12 11 8 9 9 7 6 10 8 4 6 4 4 4 3 6 5 5 7 3 9 10 16 18 19 20 27 30 33 35 35 35 35 34 34 34 36
11 11 10 11 12 12 12 11 10 10 11 9 8 10 12 9 7 5 3 3 3 3 3 2 3 5 3 4 6 14 15 16 15 25 29 32 34 35 36 35 35 35 35
9 8 7 7 11 12 12 12 10 9 10 9 9 8 8 7 11 10 8 9 7 5 5 8 4 4 6 5 4 5 9 15 16 20 29 32 33 33 34 36 30 26 25
8 7 7 7 8 9 10 11 10 9 10 10 9 10 9 7 9 7 8 9 8 6 7 6 6 5 8 2 4 4 4 8 14 21 23 27 25 5 5 2 2 7 8
8 7 7 6 7 8 7 8 9 9 10 9 8 9 9 9 10 8 8 8 7 7 6 6 5 4 4 3 3 3 4 3 4 7 8 16 20 25 20 20 18 14 12
7 6 6 5 6 6 3 8 9 8 7 6 7 7 8 9 10 9 6 7 7 7 5 6 5 5 6 4 4 4 4 2 1 3 4 6 8 11 12 14 13 15 15
9 8 8 5 7 5 8 5 7 8 8 9 9 9 9 12 11 12 12 11 9 10 10 8 7 6 8 6 5 6 5 3 3 5 2 3 4 6 9 12 14 16 17
8 6 9 10 8 6 12 5 2 4 5 5 4 1 5 4 3 5 10 13 12 11 5 1 5 2 1 3 2 2 2 2 3 2 2 3 2 5 8 11 13 16 16
10 9 9 10 9 7 13 7 6 9 9 9 7 7 6 5 5 1 8 9 9 10 6 5 7 5 4 1 1 1 1 3 4 4 4 3 2 3 5 9 13 13 13
13 12 9 10 9 10 15 6 10 10 10 11 9 9 5 4 5 1 10 11 10 10 18 24 24 20 19 16 8 4 2 3 2 2 4 2 1 3 2 1 7 9 9
14 8 12 10 16 12 16 15 11 8 10 8 8 9 15 9 9 6 9 10 10 6 6 8 7 12 16 17 19 10 2 1 3 2 3 1 2 3 2 1 2 6 3
Wind_Direction
170 163 162 166 175 171 168 164 163 162 162 165 174 171 213 209 167 175 186 164 159 155 158 158 163 162 165 162 156 152 148 147 156 159 155 150 146 143 139 139 143 145 140
165 164 164 169 169 171 170 164 167 165 165 164 168 188 199 209 172 175 185 164 162 160 161 166 168 171 169 165 162 160 158 152 161 166 166 164 152 148 145 150 152 153 154
171 166 164 167 170 173 155 143 145 144 151 169 188 196 200 215 178 174 174 162 171 165 166 168 170 173 173 171 164 162 159 156 171 171 173 166 153 152 154 159 162 165 166
170 163 163 166 159 149 157 155 161 172 176 185 194 205 196 170 199 182 169 162 170 167 171 171 173 175 173 170 169 168 160 165 174 178 184 176 174 173 171 173 177 179 181
170 171 172 162 157 159 159 167 177 184 194 188 195 200 182 180 204 184 169 161 172 166 170 180 179 174 173 172 178 177 175 185 185 187 189 195 191 191 188 186 190 193 196
173 161 167 171 159 163 172 173 174 177 189 185 194 196 192 181 200 184 166 169 169 163 167 170 176 179 179 179 182 183 190 193 193 195 200 203 200 199 204 202 203 206 209
177 167 170 177 176 178 178 179 170 184 178 175 174 188 194 163 199 195 165 166 168 170 168 173 173 176 187 188 189 188 193 197 199 201 204 206 208 206 208 213 217 218 219
179 176 171 175 170 152 159 167 174 178 195 185 184 186 151 120 192 191 167 163 169 166 174 176 176 178 184 192 200 194 200 204 204 206 204 206 210 206 210 216 222 226 226
178 179 166 163 168 159 170 176 184 195 198 203 209 157 125 174 140 135 163 161 161 167 175 176 180 181 186 191 200 205 206 207 211 207 208 206 210 207 210 219 224 229 232
179 167 161 161 166 158 167 186 184 196 180 201 174 149 230 146 148 145 72 135 172 172 177 182 181 185 189 195 201 203 209 209 214 217 214 209 208 211 214 221 227 233 237
176 162 161 159 169 162 173 186 190 192 197 158 164 149 131 96 68 134 165 161 121 166 182 188 185 193 193 197 201 206 211 213 216 220 221 222 217 215 217 220 223 230 235
188 169 163 165 166 160 176 186 188 179 170 154 148 156 156 155 145 127 134 116 183 207 184 190 194 202 204 200 204 206 211 215 217 220 223 223 222 222 223 225 228 231 234
193 183 165 165 167 167 176 183 185 184 166 162 161 161 139 141 116 112 110 188 201 205 185 193 199 204 213 205 199 203 210 214 218 220 222 226 227 227 227 229 232 235 238
187 173 170 169 169 169 170 181 179 184 176 167 168 168 166 166 169 181 187 173 173 169 189 201 196 195 204 204 205 202 206 215 219 222 224 227 231 233 234 234 235 237 242
168 172 170 173 172 173 167 178 183 186 179 180 181 177 180 184 187 194 194 183 157 174 211 220 184 201 212 205 209 212 215 219 219 222 226 229 233 236 238 240 241 240 243
172 170 175 176 172 172 167 180 184 188 184 186 185 186 192 168 176 166 180 166 168 181 207 186 207 176 212 212 211 209 213 214 221 223 227 231 237 242 243 246 246 246 249
167 171 164 174 176 179 174 181 181 187 193 195 186 194 204 192 192 179 173 188 173 154 166 183 198 202 184 218 206 215 224 221 223 231 235 240 243 246 249 249 250 252 254
158 152 152 152 172 180 176 179 172 180 190 185 187 187 201 191 200 199 204 216 221 209 202 221 174 195 207 209 218 194 215 224 225 234 237 241 243 247 253 251 257 265 264
148 138 147 155 151 171 173 180 174 176 191 194 190 197 200 185 198 184 196 209 208 204 212 225 215 196 218 174 222 220 208 221 220 226 236 244 247 319 51 38 307 277 277
152 147 156 154 165 163 161 165 171 178 189 193 191 196 196 197 204 193 198 203 197 198 198 213 215 211 204 201 201 206 243 206 234 233 242 92 93 81 73 67 61 56 62
149 141 145 145 165 163 133 175 168 171 174 177 187 198 202 201 197 194 195 196 187 193 191 199 208 215 222 203 193 195 209 202 84 17 112 73 72 78 64 65 67 68 70
145 140 133 135 80 81 8 10 185 175 184 191 196 201 201 201 202 199 202 197 201 208 214 216 214 212 216 215 220 220 225 191 228 9 65 110 83 79 70 72 80 84 82
91 78 102 105 84 47 357 349 40 167 147 87 74 130 147 83 83 186 215 107 66 39 39 190 199 173 124 41 359 161 152 156 139 55 298 96 51 83 69 76 81 77 70
50 71 71 78 82 32 352 319 135 96 87 75 59 50 71 75 43 54 109 99 77 54 39 73 80 83 63 9 221 34 50 94 84 58 352 118 124 80 74 81 89 83 77
46 47 44 59 52 37 3 11 106 99 89 75 59 51 54 63 6 186 118 111 97 86 76 82 84 74 66 53 35 142 137 128 94 47 6 68 99 115 118 91 99 97 78
68 29 51 33 49 44 28 56 82 94 88 79 61 50 44 47 45 47 136 129 112 111 91 75 60 61 51 49 47 44 1 84 109 107 356 90 128 132 112 77 91 115 71